QPF
0.00 0.00 0.02 0.01 0.00 0.00 0.00 0.00 0.00 0.00 0.00 0.00 0.00 0.01 0.02 0.00 0.00 0.00 0.00 0.00 0.00 0.00 0.00 0.00 0.00 0.00 0.00 0.00 0.00 0.01 0.06 0.03 0.05 0.04 0.03 0.01 0.00 0.00 0.00 0.00 0.00 0.01 0.01
0.00 0.00 0.04 0.02 0.00 0.00 0.00 0.00 0.00 0.00 0.00 0.00 0.00 0.00 0.00 0.00 0.00 0.00 0.00 0.00 0.00 0.00 0.01 0.01 0.00 0.00 0.00 0.00 0.00 0.01 0.06 0.03 0.01 0.01 0.01 0.02 0.01 0.00 0.00 0.00 0.02 0.06 0.05
0.00 0.00 0.00 0.01 0.01 0.02 0.01 0.00 0.00 0.01 0.01 0.01 0.01 0.02 0.01 0.00 0.00 0.00 0.00 0.00 0.00 0.00 0.00 0.01 0.01 0.00 0.00 0.00 0.00 0.02 0.03 0.00 0.00 0.01 0.00 0.00 0.00 0.00 0.00 0.01 0.04 0.08 0.06
0.00 0.00 0.00 0.00 0.00 0.00 0.00 0.01 0.00 0.00 0.00 0.01 0.01 0.01 0.02 0.03 0.03 0.03 0.01 0.00 0.00 0.00 0.00 0.00 0.00 0.01 0.00 0.00 0.00 0.01 0.01 0.00 0.00 0.00 0.00 0.03 0.02 0.03 0.02 0.03 0.06 0.07 0.06
0.00 0.00 0.00 0.00 0.00 0.00 0.00 0.00 0.01 0.00 0.00 0.01 0.01 0.02 0.02 0.04 0.04 0.05 0.04 0.05 0.06 0.05 0.01 0.00 0.00 0.00 0.00 0.00 0.00 0.00 0.00 0.00 0.00 0.00 0.00 0.01 0.03 0.04 0.10 0.11 0.07 0.14 0.21
0.00 0.00 0.00 0.00 0.00 0.00 0.00 0.00 0.01 0.01 0.01 0.00 0.01 0.01 0.02 0.04 0.07 0.09 0.08 0.07 0.05 0.04 0.03 0.01 0.00 0.00 0.00 0.01 0.00 0.01 0.00 0.00 0.00 0.00 0.00 0.01 0.07 0.03 0.23 0.15 0.04 0.05 0.08
0.00 0.00 0.00 0.00 0.00 0.00 0.00 0.00 0.00 0.00 0.00 0.00 0.00 0.00 0.00 0.00 0.02 0.06 0.07 0.07 0.05 0.04 0.07 0.05 0.02 0.01 0.01 0.00 0.00 0.02 0.01 0.00 0.00 0.00 0.00 0.00 0.05 0.17 0.18 0.14 0.03 0.00 0.00
0.00 0.00 0.00 0.00 0.00 0.00 0.00 0.00 0.00 0.00 0.00 0.00 0.00 0.00 0.00 0.00 0.00 0.02 0.06 0.06 0.02 0.03 0.04 0.04 0.02 0.01 0.02 0.00 0.00 0.01 0.02 0.01 0.01 0.01 0.00 0.00 0.04 0.19 0.24 0.22 0.09 0.00 0.00
0.00 0.00 0.00 0.00 0.00 0.00 0.00 0.00 0.00 0.00 0.00 0.00 0.00 0.00 0.00 0.00 0.00 0.00 0.00 0.01 0.01 0.04 0.07 0.06 0.03 0.02 0.01 0.01 0.01 0.01 0.03 0.03 0.04 0.01 0.00 0.00 0.00 0.08 0.16 0.16 0.15 0.03 0.00
0.00 0.00 0.00 0.00 0.00 0.00 0.00 0.00 0.00 0.00 0.00 0.00 0.00 0.00 0.00 0.00 0.00 0.00 0.00 0.00 0.00 0.01 0.04 0.05 0.04 0.04 0.03 0.02 0.02 0.04 0.01 0.00 0.01 0.00 0.00 0.00 0.00 0.00 0.00 0.01 0.02 0.00 0.00
0.00 0.00 0.00 0.00 0.00 0.00 0.00 0.00 0.00 0.00 0.00 0.00 0.00 0.00 0.00 0.00 0.00 0.00 0.00 0.00 0.00 0.00 0.01 0.05 0.04 0.03 0.06 0.03 0.05 0.09 0.04 0.00 0.00 0.00 0.00 0.00 0.00 0.00 0.00 0.00 0.01 0.00 0.00
0.00 0.00 0.00 0.00 0.00 0.00 0.00 0.00 0.00 0.00 0.00 0.00 0.00 0.00 0.00 0.00 0.00 0.00 0.00 0.00 0.00 0.01 0.01 0.00 0.03 0.03 0.05 0.03 0.05 0.07 0.04 0.03 0.01 0.00 0.00 0.00 0.00 0.00 0.00 0.01 0.03 0.03 0.01
0.00 0.00 0.00 0.00 0.00 0.00 0.00 0.00 0.00 0.00 0.00 0.00 0.00 0.00 0.00 0.00 0.00 0.00 0.00 0.00 0.00 0.00 0.00 0.02 0.04 0.04 0.06 0.08 0.08 0.08 0.08 0.08 0.01 0.00 0.00 0.00 0.00 0.00 0.00 0.00 0.06 0.07 0.07
0.00 0.00 0.00 0.00 0.00 0.00 0.00 0.00 0.00 0.00 0.00 0.00 0.00 0.00 0.00 0.00 0.00 0.00 0.00 0.00 0.00 0.00 0.00 0.01 0.04 0.07 0.08 0.11 0.16 0.16 0.16 0.09 0.01 0.01 0.01 0.00 0.00 0.01 0.02 0.00 0.05 0.11 0.13
0.00 0.00 0.00 0.00 0.00 0.00 0.00 0.00 0.00 0.00 0.00 0.00 0.00 0.00 0.00 0.00 0.00 0.00 0.00 0.00 0.00 0.00 0.00 0.00 0.00 0.03 0.16 0.20 0.35 0.51 0.27 0.19 0.09 0.06 0.05 0.04 0.00 0.00 0.01 0.01 0.07 0.13 0.13
0.00 0.00 0.00 0.00 0.00 0.00 0.00 0.00 0.00 0.00 0.00 0.00 0.00 0.00 0.00 0.00 0.00 0.00 0.00 0.00 0.00 0.00 0.00 0.00 0.00 0.00 0.02 0.09 0.21 0.64 1.06 0.68 0.54 0.28 0.09 0.09 0.07 0.03 0.00 0.00 0.03 0.13 0.14
0.00 0.00 0.00 0.00 0.00 0.00 0.00 0.00 0.00 0.00 0.00 0.00 0.00 0.00 0.00 0.00 0.00 0.00 0.00 0.00 0.00 0.00 0.00 0.00 0.00 0.00 0.00 0.01 0.01 0.13 0.64 0.90 0.66 0.43 0.26 0.13 0.14 0.08 0.05 0.04 0.03 0.09 0.18
0.00 0.00 0.00 0.00 0.00 0.00 0.00 0.00 0.00 0.00 0.00 0.00 0.00 0.00 0.00 0.00 0.00 0.00 0.00 0.00 0.00 0.00 0.00 0.00 0.00 0.00 0.00 0.00 0.00 0.00 0.04 0.20 0.52 0.35 0.16 0.08 0.04 0.03 0.02 0.04 0.04 0.06 0.12
0.00 0.00 0.00 0.00 0.00 0.00 0.00 0.00 0.00 0.00 0.00 0.00 0.00 0.00 0.00 0.00 0.00 0.00 0.00 0.00 0.00 0.00 0.00 0.00 0.00 0.00 0.00 0.00 0.00 0.00 0.00 0.00 0.04 0.09 0.03 0.00 0.00 0.01 0.01 0.01 0.04 0.06 0.05
0.00 0.00 0.00 0.00 0.00 0.00 0.00 0.00 0.00 0.00 0.00 0.00 0.00 0.00 0.00 0.00 0.00 0.00 0.00 0.00 0.00 0.00 0.00 0.00 0.00 0.00 0.00 0.00 0.00 0.00 0.00 0.00 0.00 0.01 0.02 0.00 0.00 0.00 0.00 0.00 0.02 0.02 0.03
0.00 0.00 0.00 0.00 0.00 0.00 0.00 0.00 0.00 0.00 0.00 0.00 0.00 0.00 0.00 0.00 0.00 0.00 0.00 0.00 0.00 0.00 0.00 0.00 0.00 0.00 0.00 0.00 0.00 0.00 0.00 0.00 0.00 0.00 0.00 0.00 0.00 0.00 0.00 0.00 0.01 0.01 0.01
0.00 0.00 0.00 0.00 0.00 0.00 0.00 0.00 0.00 0.00 0.00 0.00 0.00 0.00 0.00 0.00 0.00 0.00 0.00 0.00 0.00 0.00 0.00 0.00 0.00 0.00 0.00 0.00 0.01 0.01 0.00 0.00 0.00 0.00 0.00 0.00 0.00 0.00 0.01 0.01 0.01 0.01 0.01
0.00 0.00 0.00 0.00 0.00 0.00 0.00 0.00 0.00 0.00 0.00 0.00 0.00 0.00 0.00 0.00 0.00 0.00 0.00 0.00 0.00 0.00 0.00 0.00 0.00 0.00 0.00 0.00 0.00 0.01 0.01 0.01 0.00 0.00 0.00 0.00 0.00 0.01 0.02 0.03 0.04 0.04 0.05
0.00 0.00 0.00 0.00 0.00 0.00 0.00 0.00 0.00 0.00 0.00 0.00 0.00 0.00 0.00 0.00 0.00 0.00 0.00 0.00 0.00 0.00 0.00 0.00 0.00 0.00 0.00 0.00 0.00 0.00 0.01 0.02 0.03 0.02 0.00 0.00 0.00 0.00 0.00 0.01 0.02 0.04 0.03
0.00 0.00 0.00 0.00 0.00 0.00 0.00 0.00 0.00 0.00 0.00 0.00 0.00 0.00 0.00 0.00 0.00 0.00 0.00 0.00 0.00 0.00 0.00 0.00 0.00 0.00 0.00 0.00 0.00 0.00 0.00 0.00 0.01 0.02 0.01 0.00 0.00 0.00 0.00 0.00 0.00 0.00 0.00
0.00 0.00 0.00 0.00 0.00 0.00 0.00 0.00 0.00 0.00 0.00 0.00 0.00 0.00 0.00 0.00 0.00 0.00 0.00 0.00 0.00 0.00 0.00 0.00 0.00 0.00 0.00 0.00 0.00 0.00 0.00 0.01 0.00 0.01 0.02 0.00 0.00 0.00 0.00 0.00 0.00 0.00 0.00
MSLP
1019.32 1018.92 1018.46 1018.20 1018.02 1017.84 1017.74 1017.65 1017.58 1017.54 1017.47 1017.36 1017.23 1017.19 1017.15 1017.05 1017.00 1016.91 1016.80 1016.70 1016.64 1016.45 1016.34 1016.26 1016.26 1016.25 1016.23 1016.18 1016.11 1016.12 1016.05 1016.02 1015.96 1016.00 1016.00 1015.93 1016.03 1015.99 1016.03 1016.12 1016.20 1016.27 1016.25
1019.43 1019.32 1018.91 1018.55 1018.30 1018.10 1017.97 1017.84 1017.72 1017.61 1017.49 1017.43 1017.31 1017.22 1017.21 1017.18 1017.15 1017.07 1016.91 1016.79 1016.60 1016.47 1016.44 1016.40 1016.31 1016.32 1016.26 1016.25 1016.14 1016.12 1016.11 1016.13 1016.20 1016.13 1016.12 1016.07 1016.25 1016.17 1016.15 1016.22 1016.32 1016.41 1016.40
1019.78 1019.77 1019.42 1019.08 1018.76 1018.54 1018.30 1018.17 1017.93 1017.71 1017.52 1017.41 1017.36 1017.34 1017.34 1017.17 1017.14 1017.09 1017.04 1016.88 1016.68 1016.62 1016.45 1016.40 1016.36 1016.42 1016.42 1016.38 1016.24 1016.09 1016.26 1016.33 1016.32 1016.37 1016.37 1016.48 1016.34 1016.23 1016.16 1016.29 1016.42 1016.46 1016.58
1020.26 1020.25 1019.88 1019.50 1019.11 1018.82 1018.53 1018.30 1018.12 1017.93 1017.79 1017.59 1017.50 1017.41 1017.32 1017.25 1017.17 1017.07 1016.86 1016.77 1016.69 1016.61 1016.54 1016.41 1016.34 1016.30 1016.37 1016.42 1016.38 1016.19 1016.29 1016.32 1016.36 1016.40 1016.56 1016.52 1016.54 1016.20 1016.18 1016.32 1016.34 1016.49 1016.63
1020.69 1020.48 1020.16 1019.87 1019.57 1019.26 1018.96 1018.76 1018.49 1018.20 1018.06 1017.86 1017.65 1017.56 1017.52 1017.34 1017.11 1016.96 1016.94 1016.88 1016.72 1016.63 1016.50 1016.47 1016.39 1016.32 1016.15 1016.32 1016.36 1016.27 1016.23 1016.20 1016.24 1016.33 1016.46 1016.38 1016.39 1016.10 1016.13 1016.15 1016.35 1016.49 1016.71
1020.82 1020.56 1020.27 1020.09 1019.84 1019.69 1019.36 1019.19 1018.89 1018.66 1018.40 1018.24 1018.02 1017.85 1017.68 1017.43 1017.21 1016.99 1016.87 1016.76 1016.69 1016.63 1016.50 1016.37 1016.21 1016.13 1016.01 1016.13 1016.13 1016.12 1016.10 1016.11 1016.07 1016.25 1016.17 1016.00 1016.11 1015.91 1016.04 1016.32 1016.26 1016.55 1016.76
1021.04 1020.88 1020.55 1020.20 1020.13 1019.99 1019.73 1019.60 1019.35 1019.09 1018.87 1018.68 1018.43 1018.28 1018.05 1017.68 1017.34 1017.05 1016.90 1016.68 1016.56 1016.50 1016.30 1016.17 1016.14 1015.94 1015.85 1015.96 1015.83 1015.86 1015.95 1016.03 1015.97 1016.08 1015.96 1015.80 1015.89 1015.89 1015.91 1016.28 1016.39 1016.60 1016.85
1021.33 1021.15 1020.94 1020.64 1020.35 1020.08 1019.89 1019.82 1019.61 1019.40 1019.11 1018.93 1018.67 1018.52 1018.28 1018.05 1017.87 1017.33 1017.01 1016.82 1016.49 1016.19 1016.12 1015.96 1015.77 1015.66 1015.55 1015.56 1015.58 1015.65 1015.66 1015.79 1015.91 1015.91 1015.73 1015.69 1015.78 1015.86 1016.10 1016.27 1016.44 1016.64 1016.97
1021.63 1021.51 1021.26 1020.99 1020.62 1020.36 1020.06 1019.89 1019.79 1019.56 1019.31 1019.19 1019.09 1018.97 1018.90 1018.62 1018.26 1017.86 1017.67 1017.21 1016.80 1016.41 1015.99 1015.70 1015.60 1015.34 1015.26 1015.24 1015.10 1015.30 1015.35 1015.51 1015.83 1015.79 1015.36 1015.55 1015.47 1015.80 1016.17 1016.45 1016.56 1016.68 1016.94
1021.93 1021.79 1021.58 1021.24 1021.00 1020.78 1020.57 1020.20 1020.10 1019.85 1019.64 1019.54 1019.43 1019.20 1018.98 1018.91 1018.77 1018.46 1018.02 1017.58 1017.15 1016.54 1015.98 1015.64 1015.32 1015.31 1015.05 1014.99 1014.79 1014.99 1015.08 1015.25 1015.44 1015.60 1015.41 1015.27 1015.25 1015.53 1015.91 1016.25 1016.49 1016.51 1016.68
1022.52 1022.39 1022.10 1021.92 1021.48 1021.17 1020.88 1020.63 1020.57 1020.24 1020.04 1019.95 1019.78 1019.58 1019.40 1019.17 1018.95 1018.66 1018.39 1017.94 1017.35 1016.94 1016.33 1015.79 1015.31 1014.82 1014.71 1014.64 1014.44 1014.78 1014.83 1015.01 1015.06 1015.24 1014.98 1014.70 1014.86 1015.12 1015.50 1015.79 1016.06 1016.27 1016.44
1023.17 1022.90 1022.76 1022.47 1022.18 1021.77 1021.26 1021.29 1021.13 1020.80 1020.75 1020.46 1020.18 1019.98 1019.74 1019.46 1019.16 1018.88 1018.44 1018.02 1017.58 1017.13 1016.68 1016.04 1015.60 1014.98 1014.55 1014.38 1014.30 1014.60 1014.69 1014.64 1014.61 1014.64 1014.54 1014.34 1014.27 1014.52 1014.87 1015.24 1015.80 1016.11 1016.29
1023.47 1023.30 1023.17 1022.86 1022.57 1022.35 1022.21 1021.90 1021.68 1021.31 1021.25 1021.04 1020.60 1020.40 1020.11 1019.84 1019.47 1019.13 1018.78 1018.20 1017.66 1017.34 1017.17 1016.55 1015.78 1015.14 1015.01 1014.53 1014.16 1014.27 1014.33 1014.37 1014.37 1014.57 1014.38 1014.30 1014.14 1014.38 1014.55 1014.85 1015.34 1015.72 1015.96
1023.93 1023.94 1023.73 1023.56 1023.17 1022.89 1022.65 1022.39 1022.32 1022.08 1021.93 1021.65 1021.47 1021.11 1020.73 1020.50 1019.90 1019.60 1019.15 1018.55 1017.98 1017.61 1017.01 1016.55 1016.13 1015.57 1014.85 1014.61 1014.45 1014.14 1014.05 1013.90 1013.83 1014.15 1014.20 1014.26 1014.38 1014.45 1014.42 1014.62 1014.93 1015.22 1015.58
1024.24 1024.30 1024.31 1024.02 1023.81 1023.46 1023.29 1023.18 1022.94 1022.73 1022.49 1022.33 1022.09 1021.73 1021.46 1021.17 1020.71 1020.18 1019.62 1018.87 1018.45 1017.89 1017.50 1016.79 1016.16 1015.77 1015.11 1014.54 1014.59 1013.92 1013.52 1013.45 1013.38 1013.61 1013.83 1014.18 1014.40 1014.37 1014.41 1014.58 1014.48 1014.64 1015.20
1024.57 1024.67 1024.64 1024.53 1024.38 1024.08 1023.87 1023.65 1023.52 1023.09 1022.89 1022.62 1022.38 1022.15 1021.89 1021.52 1021.19 1020.54 1019.91 1019.34 1018.75 1018.29 1017.72 1017.17 1016.52 1016.05 1015.54 1015.01 1014.65 1014.03 1013.72 1012.84 1013.14 1013.15 1013.08 1013.63 1013.96 1014.12 1014.25 1014.45 1014.38 1014.34 1014.86
1024.99 1024.99 1024.86 1024.70 1024.70 1024.54 1024.35 1024.02 1023.73 1023.52 1023.11 1022.71 1022.38 1022.23 1021.86 1021.63 1021.28 1020.90 1020.39 1019.72 1019.12 1018.46 1017.92 1017.27 1016.72 1016.28 1015.97 1015.21 1014.56 1014.13 1013.60 1013.03 1012.65 1012.53 1012.80 1013.13 1013.30 1013.66 1014.25 1014.36 1014.29 1014.19 1014.51
1025.08 1025.20 1025.18 1025.14 1025.07 1024.77 1024.63 1024.44 1024.05 1023.68 1023.46 1023.03 1022.66 1022.28 1021.84 1021.46 1021.20 1020.90 1020.59 1020.03 1019.38 1018.73 1017.98 1017.71 1017.23 1016.69 1016.22 1015.75 1015.04 1014.15 1013.85 1013.18 1012.79 1012.54 1012.82 1012.82 1013.24 1013.55 1013.69 1013.94 1013.79 1014.00 1014.23
1025.35 1025.47 1025.47 1025.36 1025.32 1025.16 1024.87 1024.51 1024.24 1023.96 1023.63 1023.34 1022.90 1022.52 1022.16 1021.63 1021.28 1020.95 1020.47 1019.98 1019.51 1018.89 1018.21 1017.90 1017.51 1017.13 1016.52 1015.83 1015.18 1014.31 1013.62 1013.29 1013.04 1012.95 1012.87 1012.88 1013.15 1013.26 1013.31 1013.50 1013.14 1013.59 1013.92
1025.53 1025.61 1025.63 1025.57 1025.44 1025.14 1024.84 1024.47 1024.21 1023.98 1023.64 1023.29 1022.97 1022.65 1022.17 1021.82 1021.38 1020.98 1020.47 1019.87 1019.42 1018.99 1018.40 1017.96 1017.61 1017.32 1016.81 1016.12 1015.24 1014.34 1013.48 1012.99 1012.89 1012.77 1012.70 1012.61 1012.67 1012.66 1012.80 1013.03 1012.86 1012.89 1013.35
1025.64 1025.72 1025.74 1025.68 1025.43 1025.23 1024.88 1024.64 1024.28 1024.16 1023.69 1023.30 1022.91 1022.49 1022.28 1021.90 1021.54 1021.14 1020.59 1020.03 1019.46 1019.00 1018.37 1018.07 1017.80 1017.38 1016.84 1016.19 1015.16 1014.08 1013.24 1012.63 1012.25 1012.38 1012.08 1012.34 1012.32 1012.16 1012.38 1012.47 1012.33 1012.29 1012.75
1025.72 1025.82 1025.85 1025.67 1025.42 1025.13 1025.00 1024.77 1024.54 1024.29 1023.86 1023.46 1022.99 1022.65 1022.33 1021.92 1021.46 1020.99 1020.55 1020.14 1019.46 1019.07 1018.59 1018.18 1017.87 1017.47 1016.94 1016.57 1016.26 1015.06 1013.72 1012.92 1012.21 1011.67 1011.73 1011.73 1011.80 1011.85 1011.88 1011.90 1011.85 1011.96 1012.04
1025.74 1025.84 1025.74 1025.72 1025.57 1025.29 1024.87 1024.58 1024.27 1023.98 1023.61 1023.44 1023.04 1022.71 1022.26 1021.94 1021.46 1021.01 1020.53 1020.17 1019.58 1019.03 1018.67 1018.21 1017.80 1017.51 1017.06 1016.67 1016.71 1016.11 1014.54 1013.35 1012.76 1011.98 1011.77 1011.61 1011.52 1011.53 1011.47 1011.79 1011.40 1011.56 1011.70
1025.63 1025.73 1025.71 1025.67 1025.58 1025.33 1024.99 1024.86 1024.76 1024.64 1024.26 1023.76 1023.32 1022.68 1022.24 1021.80 1021.39 1020.97 1020.53 1020.08 1019.69 1019.01 1018.71 1018.37 1017.78 1017.48 1017.15 1016.66 1016.34 1015.69 1015.40 1015.17 1013.68 1012.48 1011.85 1011.66 1011.44 1011.30 1011.33 1011.36 1011.32 1011.38 1011.63
1025.55 1025.68 1025.65 1025.66 1025.59 1025.42 1025.22 1025.02 1024.89 1024.79 1024.44 1023.84 1023.21 1022.66 1022.16 1021.63 1021.27 1020.91 1020.46 1020.04 1019.64 1019.02 1018.64 1018.43 1017.92 1017.50 1017.03 1016.50 1016.27 1016.09 1015.74 1014.89 1014.13 1013.31 1012.21 1011.78 1011.69 1011.29 1011.06 1010.97 1011.08 1011.21 1011.28
1025.48 1025.57 1025.64 1025.68 1025.70 1025.54 1025.38 1025.18 1024.97 1024.80 1024.30 1023.73 1023.18 1022.67 1022.13 1021.65 1021.18 1020.78 1020.36 1019.93 1019.46 1018.93 1018.47 1018.27 1018.06 1017.61 1017.08 1016.50 1015.93 1015.51 1015.54 1015.25 1014.16 1013.57 1012.63 1012.22 1011.92 1011.44 1011.22 1011.04 1010.97 1011.03 1010.98
Thickness
5690 5692 5695 5696 5697 5698 5699 5699 5699 5699 5699 5699 5698 5698 5698 5698 5697 5697 5697 5697 5697 5698 5699 5699 5699 5697 5697 5697 5698 5698 5698 5699 5699 5699 5699 5701 5700 5701 5700 5699 5699 5698 5699
5687 5686 5688 5690 5691 5692 5693 5693 5693 5693 5694 5695 5695 5694 5693 5693 5692 5692 5692 5692 5693 5693 5693 5693 5694 5693 5693 5692 5694 5694 5693 5693 5693 5694 5695 5697 5695 5696 5696 5695 5694 5694 5693
5682 5681 5682 5682 5684 5684 5685 5685 5686 5687 5688 5688 5688 5688 5687 5688 5687 5687 5686 5687 5688 5687 5688 5688 5688 5687 5687 5687 5689 5690 5688 5688 5689 5688 5689 5690 5691 5692 5693 5692 5690 5689 5689
5675 5674 5676 5676 5680 5681 5681 5681 5681 5681 5681 5682 5681 5681 5681 5681 5682 5682 5682 5682 5682 5682 5681 5682 5683 5684 5683 5682 5683 5685 5684 5684 5684 5685 5683 5684 5685 5688 5690 5688 5688 5687 5686
5671 5671 5671 5672 5672 5673 5674 5674 5674 5674 5674 5674 5674 5674 5673 5673 5675 5676 5676 5675 5676 5675 5676 5675 5677 5678 5680 5678 5677 5679 5680 5680 5681 5681 5680 5682 5683 5685 5686 5686 5685 5684 5683
5667 5666 5666 5665 5666 5665 5666 5666 5667 5668 5668 5667 5668 5667 5666 5667 5668 5669 5669 5670 5670 5670 5671 5671 5672 5674 5676 5674 5674 5674 5675 5676 5677 5677 5679 5680 5682 5684 5682 5681 5683 5681 5680
5662 5661 5660 5660 5658 5657 5658 5657 5656 5656 5656 5657 5658 5657 5658 5659 5661 5662 5661 5662 5663 5664 5666 5667 5666 5668 5669 5669 5671 5670 5671 5671 5673 5674 5676 5678 5678 5679 5680 5676 5677 5676 5675
5655 5654 5654 5654 5652 5652 5651 5648 5647 5645 5646 5647 5648 5648 5648 5648 5647 5651 5653 5654 5656 5658 5658 5660 5662 5663 5664 5664 5665 5665 5667 5667 5667 5670 5673 5673 5673 5674 5673 5671 5671 5671 5669
5650 5649 5648 5648 5649 5647 5645 5643 5641 5641 5640 5639 5636 5635 5635 5636 5636 5638 5639 5642 5644 5647 5651 5652 5654 5658 5659 5660 5663 5661 5662 5662 5662 5664 5669 5669 5671 5668 5666 5665 5665 5666 5664
5644 5643 5642 5641 5640 5639 5637 5636 5632 5631 5630 5627 5625 5625 5626 5623 5621 5622 5625 5628 5631 5636 5641 5643 5645 5647 5651 5653 5655 5656 5656 5655 5658 5657 5662 5665 5667 5665 5663 5660 5661 5662 5662
5637 5634 5633 5632 5632 5630 5627 5626 5622 5619 5617 5615 5613 5611 5610 5611 5611 5609 5609 5612 5616 5620 5627 5632 5637 5641 5643 5647 5651 5647 5649 5649 5651 5653 5658 5663 5661 5661 5659 5658 5658 5658 5658
5626 5624 5622 5620 5618 5617 5616 5613 5609 5608 5603 5600 5599 5596 5595 5594 5595 5594 5597 5597 5601 5605 5610 5618 5623 5629 5634 5638 5642 5640 5641 5642 5645 5648 5651 5656 5658 5659 5656 5654 5652 5652 5652
5618 5615 5612 5610 5608 5607 5603 5600 5596 5594 5588 5585 5586 5582 5580 5578 5578 5578 5579 5583 5587 5589 5592 5600 5609 5616 5619 5626 5632 5633 5635 5637 5637 5639 5644 5645 5649 5650 5652 5651 5648 5648 5647
5609 5603 5600 5597 5597 5595 5591 5587 5581 5576 5571 5567 5563 5560 5560 5558 5560 5560 5561 5564 5568 5571 5578 5585 5592 5600 5609 5614 5618 5623 5627 5629 5632 5632 5635 5634 5637 5640 5643 5644 5643 5644 5643
5599 5594 5589 5587 5584 5580 5574 5569 5564 5559 5553 5547 5543 5540 5537 5535 5536 5540 5542 5546 5550 5552 5559 5567 5576 5583 5592 5602 5605 5613 5618 5622 5625 5626 5628 5627 5625 5630 5633 5635 5639 5641 5638
5589 5583 5579 5574 5569 5564 5559 5553 5547 5543 5536 5530 5526 5521 5517 5516 5516 5519 5524 5527 5532 5536 5542 5549 5557 5564 5573 5582 5590 5598 5602 5613 5615 5618 5619 5620 5620 5622 5623 5625 5630 5635 5632
5579 5573 5568 5563 5556 5551 5545 5539 5533 5526 5521 5517 5512 5504 5501 5498 5498 5499 5503 5507 5513 5519 5526 5534 5541 5547 5552 5564 5575 5583 5590 5598 5606 5609 5610 5611 5615 5612 5612 5613 5620 5625 5626
5570 5563 5556 5549 5544 5539 5532 5526 5521 5514 5506 5501 5496 5491 5487 5484 5483 5484 5485 5488 5494 5500 5509 5516 5522 5530 5537 5544 5554 5567 5575 5584 5588 5591 5595 5600 5597 5602 5603 5606 5610 5614 5617
5560 5552 5546 5540 5533 5527 5521 5514 5507 5499 5492 5484 5479 5474 5469 5467 5467 5469 5471 5474 5477 5483 5491 5497 5504 5511 5520 5529 5539 5550 5561 5570 5575 5575 5581 5587 5589 5591 5593 5597 5607 5608 5609
5550 5543 5536 5530 5523 5516 5508 5501 5492 5484 5477 5470 5463 5457 5452 5450 5451 5454 5458 5462 5464 5468 5475 5481 5487 5493 5503 5511 5525 5535 5548 5559 5564 5569 5574 5580 5582 5583 5587 5591 5599 5605 5605
5540 5532 5526 5518 5510 5501 5493 5485 5477 5468 5460 5452 5445 5441 5436 5434 5433 5436 5442 5446 5451 5456 5462 5465 5470 5477 5485 5497 5510 5524 5536 5547 5558 5562 5570 5573 5577 5580 5581 5584 5592 5599 5600
5531 5521 5512 5504 5496 5488 5479 5469 5461 5454 5447 5438 5431 5424 5418 5418 5419 5420 5425 5429 5437 5442 5448 5452 5456 5462 5470 5475 5487 5500 5520 5531 5543 5556 5561 5567 5571 5573 5577 5580 5585 5592 5595
5518 5508 5500 5490 5481 5472 5464 5457 5448 5438 5430 5422 5415 5409 5405 5401 5402 5403 5408 5412 5420 5427 5433 5438 5444 5448 5456 5461 5465 5479 5500 5517 5526 5539 5547 5555 5562 5566 5570 5570 5579 5585 5590
5508 5497 5487 5476 5466 5458 5449 5439 5428 5418 5412 5405 5399 5395 5392 5388 5387 5386 5389 5394 5402 5411 5418 5423 5431 5436 5442 5449 5452 5465 5474 5484 5505 5523 5533 5541 5550 5558 5562 5567 5572 5576 5581
5497 5485 5475 5463 5453 5442 5431 5421 5411 5400 5391 5387 5384 5381 5378 5376 5372 5372 5374 5378 5384 5394 5401 5406 5415 5422 5429 5438 5442 5444 5455 5470 5485 5500 5519 5529 5536 5544 5554 5560 5565 5568 5573
5485 5474 5463 5451 5438 5427 5415 5404 5394 5384 5378 5374 5371 5368 5365 5362 5360 5358 5359 5363 5369 5377 5386 5391 5397 5406 5414 5423 5433 5439 5440 5450 5471 5483 5501 5511 5522 5533 5538 5547 5554 5558 5564